Monticello, KY

2:33 PM EST on November 13, 2019 (GMT -0500)
Wayne County

Weather History for KEKQ - October, 2019

Change the Weather History Date:

Tuesday, October 22, 2019

  Actual Average Record
Temperature  
Mean Temperature 56 °F -  
Max Temperature 64 °F 68 °F 85 °F (1963)
Min Temperature 48 °F 42 °F 22 °F (1987)
Degree Days  
Heating Degree Days 9    
Growing Degree Days 6 (Base 50)    
Moisture  
Dew Point 50 °F    
Average Humidity 81    
Maximum Humidity 100    
Minimum Humidity 40    
Precipitation  
Precipitation 0.00 in - - ()
Sea Level Pressure  
Sea Level Pressure 29.93 in    
Wind  
Wind Speed 16 mph (West)    
Max Wind Speed 23 mph    
Max Gust Speed 30 mph    
Visibility 9 miles    
Events Fog , Rain    
Averages and records for this station are not official NWS values.
T = Trace of Precipitation, MM = Missing Value Source: NWS Daily Summary

Daily Weather History Graph

Daily Weather History Graph

Search for Another Location

Airport or City:

Astronomy

Oct. 22, 2019 Rise Set
Actual Time 6:53 AM CDT 5:53 PM CDT
Civil Twilight 6:26 AM CDT 6:20 PM CDT
Nautical Twilight 5:56 AM CDT 6:50 PM CDT
Astronomical Twilight 5:26 AM CDT 7:20 PM CDT
Moon 12:14 AM CDT (10/22) 2:51 PM CDT (10/22)
Length of Visible Light 11h 53m
Length of Day
11h 00m
Last Quarter, 37% of the Moon is Illuminated
Oct 22
Last Quarter
Oct 27
New
Nov 4
First Quarter
Nov 12
Full
Nov 19
Last Quarter

Hourly Weather History & Observations

Time (CDT) Temp. Dew Point Humidity Pressure Visibility Wind Dir Wind Speed Gust Speed Precip Events Conditions
12:04 AM 60.8 °F 57.2 °F 88% 29.89 in 9.0 mi West 23.0 mph 29.9 mph N/A Rain Light Rain
12:18 AM 59.0 °F 57.2 °F 94% 29.88 in 10.0 mi West 17.3 mph - N/A Rain Light Rain
12:56 AM 61.0 °F 60.1 °F 97% 29.84 in 10.0 mi West 18.4 mph 24.2 mph N/A Rain Light Rain
1:56 AM 60.1 °F 59.0 °F 96% 29.84 in 10.0 mi West 18.4 mph - N/A   Overcast
2:56 AM 60.1 °F 59.0 °F 96% 29.86 in 10.0 mi West 17.3 mph - N/A Rain Light Rain
3:09 AM 60.8 °F 59.0 °F 94% 29.88 in 10.0 mi West 16.1 mph - N/A Rain Light Rain
3:21 AM 60.8 °F 59.0 °F 94% 29.88 in 10.0 mi West 13.8 mph - N/A Rain Light Rain
3:38 AM 59.0 °F 59.0 °F 100% 29.88 in 10.0 mi West 12.7 mph - N/A Rain Light Rain
3:56 AM 59.0 °F 59.0 °F 100% 29.87 in 10.0 mi West 12.7 mph - N/A   Overcast
4:56 AM 59.0 °F 57.9 °F 96% 29.89 in 10.0 mi West 11.5 mph - N/A Rain Light Rain
5:08 AM 57.2 °F 57.2 °F 100% 29.90 in 10.0 mi West 15.0 mph - N/A   Overcast
5:32 AM 57.2 °F 55.4 °F 94% 29.91 in 10.0 mi West 15.0 mph - N/A   Scattered Clouds
5:54 AM 55.4 °F 55.4 °F 100% 29.91 in 10.0 mi Variable 5.8 mph - N/A   Mostly Cloudy
5:56 AM 55.0 °F 55.0 °F 100% 29.89 in 10.0 mi NNE 6.9 mph - N/A   Mostly Cloudy
6:05 AM 55.4 °F 55.4 °F 100% 29.91 in 10.0 mi NW 9.2 mph - N/A   Mostly Cloudy
6:19 AM 53.6 °F 53.6 °F 100% - 10.0 mi Variable 5.8 mph - N/A   Scattered Clouds
6:56 AM 51.1 °F 50.0 °F 96% 29.90 in 10.0 mi NNW 9.2 mph - N/A   Clear
7:13 AM 48.2 °F 48.2 °F 100% 29.92 in 1.0 mi North 9.2 mph - N/A   Clear
7:20 AM 48.2 °F 48.2 °F 100% 29.92 in 0.5 mi NNE 8.1 mph - N/A Fog Fog
7:33 AM 48.2 °F 48.2 °F 100% 29.93 in 1.2 mi NNE 8.1 mph - N/A   Clear
7:36 AM 48.2 °F 48.2 °F 100% 29.92 in 4.0 mi NE 8.1 mph - N/A   Clear
7:56 AM 55.0 °F 55.0 °F 100% 29.91 in 10.0 mi NE 5.8 mph - N/A   Clear
8:56 AM 59.0 °F 54.0 °F 83% 29.92 in 10.0 mi WSW 18.4 mph - N/A   Clear
9:56 AM 60.1 °F 48.9 °F 67% 29.92 in 10.0 mi WSW 21.9 mph - N/A   Clear
10:56 AM 62.1 °F 48.9 °F 62% 29.93 in 10.0 mi West 23.0 mph 27.6 mph N/A   Clear
11:56 AM 62.1 °F 46.9 °F 58% 29.94 in 10.0 mi West 20.7 mph - N/A   Mostly Cloudy
12:56 PM 63.0 °F 46.0 °F 54% 29.92 in 10.0 mi West 19.6 mph 26.5 mph N/A   Clear
1:56 PM 64.0 °F 42.1 °F 45% 29.91 in 10.0 mi North - - N/A   Clear
2:56 PM 64.0 °F 41.0 °F 43% 29.92 in 10.0 mi WSW 21.9 mph 29.9 mph N/A   Clear
3:56 PM 64.0 °F 39.0 °F 40% 29.93 in 10.0 mi WSW 23.0 mph 29.9 mph N/A   Clear
4:56 PM 62.1 °F 39.9 °F 44% 29.94 in 10.0 mi WSW 19.6 mph - N/A   Clear
5:56 PM 57.0 °F 41.0 °F 55% 29.96 in 10.0 mi WSW 13.8 mph - N/A   Partly Cloudy
6:56 PM 53.1 °F 41.0 °F 64% 29.99 in 10.0 mi WNW 9.2 mph - N/A   Clear
7:56 PM 51.1 °F 42.1 °F 71% 30.00 in 10.0 mi NE 5.8 mph - N/A   Scattered Clouds
8:56 PM 48.9 °F 42.1 °F 77% 30.02 in 10.0 mi West 11.5 mph - N/A   Partly Cloudy
9:16 PM 51.8 °F 41.0 °F 67% 30.04 in 10.0 mi West 13.8 mph - N/A   Partly Cloudy
9:56 PM 54.0 °F 39.9 °F 59% 30.05 in 10.0 mi West 17.3 mph 20.7 mph N/A   Partly Cloudy
10:56 PM 51.1 °F 39.0 °F 63% 30.06 in 10.0 mi West 16.1 mph - N/A   Clear
11:56 PM 48.9 °F 39.0 °F 69% 30.06 in 10.0 mi West 13.8 mph - N/A   Clear